Change the Weather History Date:

Sunday, November 10, 2013

  Actual Average (KGPZ) Record (KGPZ)
Temperature  
Mean Temperature 26 °F -  
Max Temperature 37 °F 36 °F 62 °F (1954)
Min Temperature 15 °F 23 °F -8 °F (1933)
Degree Days  
Heating Degree Days 39    
Moisture  
Dew Point 24 °F    
Average Humidity 79    
Maximum Humidity 93    
Minimum Humidity 63    
Precipitation  
Precipitation 0.01 in - - ()
Sea Level Pressure  
Sea Level Pressure 30.14 in    
Wind  
Wind Speed 7 mph (West)    
Max Wind Speed 20 mph    
Max Gust Speed 25 mph    
Visibility 9 miles    
Events Snow    
Averages and records for this station are not official NWS values.
T = Trace of Precipitation, MM = Missing Value Source: NWS Daily Summary

Daily Weather History Graph

Daily Weather History Graph

Search for Another Location

Airport or City:

Trip Planner

Search our weather history database for the weather conditions in past years. The results will help you decide how hot, cold, wet, or windy it might be!

Date:

Astronomy

Nov. 10, 2013 Rise Set
Actual Time 7:13 AM CST 4:43 PM CST
Civil Twilight 6:39 AM CST 5:16 PM CST
Nautical Twilight 6:02 AM CST 5:53 PM CST
Astronomical Twilight 5:26 AM CST 6:29 PM CST
Moon 1:17 PM CST (11/10) No Moon Set
Length of Visible Light 10h 36m
Length of Day
9h 30m
First Quarter, 56% of the Moon is Illuminated
Nov 10
First Quarter
Nov 17
Full
Nov 25
Last Quarter
Dec 2
New
Dec 9
First Quarter

Hourly Weather History & Observations

Time (CST) Temp. Windchill Dew Point Humidity Pressure Visibility Wind Dir Wind Speed Gust Speed Precip Events Conditions
12:13 AM 33.8 °F 27.7 °F 30.2 °F 87% 30.15 in 10.0 mi WNW 6.9 mph - N/A   Overcast
12:33 AM 33.8 °F 28.6 °F 30.2 °F 87% 30.15 in 10.0 mi NW 5.8 mph - N/A   Overcast
12:53 AM 33.8 °F 30.8 °F 30.2 °F 87% 30.15 in 10.0 mi NW 3.5 mph - N/A   Overcast
1:13 AM 33.8 °F 28.6 °F 30.2 °F 87% 30.16 in 10.0 mi WNW 5.8 mph - N/A   Overcast
1:33 AM 33.8 °F 30.8 °F 30.2 °F 87% 30.16 in 10.0 mi NW 3.5 mph - N/A   Overcast
1:53 AM 33.8 °F 28.6 °F 30.2 °F 87% 30.16 in 10.0 mi WNW 5.8 mph - N/A   Overcast
2:13 AM 33.8 °F 29.6 °F 28.4 °F 81% 30.17 in 10.0 mi WNW 4.6 mph - N/A   Overcast
2:33 AM 33.8 °F 30.8 °F 28.4 °F 81% 30.17 in 10.0 mi WNW 3.5 mph - N/A   Overcast
2:53 AM 32.0 °F 28.7 °F 28.4 °F 87% 30.16 in 10.0 mi West 3.5 mph - N/A   Mostly Cloudy
3:13 AM 32.0 °F - 28.4 °F 87% 30.17 in 10.0 mi Calm Calm - N/A   Mostly Cloudy
3:33 AM 32.0 °F 26.4 °F 28.4 °F 87% 30.17 in 10.0 mi West 5.8 mph - N/A   Overcast
3:53 AM 32.0 °F 26.4 °F 28.4 °F 87% 30.19 in 10.0 mi West 5.8 mph - N/A   Overcast
4:13 AM 32.0 °F 24.8 °F 28.4 °F 87% 30.20 in 10.0 mi West 8.1 mph - N/A   Overcast
4:33 AM 32.0 °F 26.4 °F 26.6 °F 80% 30.20 in 10.0 mi West 5.8 mph - N/A   Overcast
4:53 AM 32.0 °F - 26.6 °F 80% 30.20 in 10.0 mi Calm Calm - N/A   Overcast
5:13 AM 30.2 °F - 26.6 °F 86% 30.20 in 10.0 mi Calm Calm - N/A   Overcast
5:33 AM 30.2 °F 25.4 °F 26.6 °F 86% 30.20 in 10.0 mi West 4.6 mph - N/A   Overcast
5:53 AM 30.2 °F 23.4 °F 24.8 °F 80% 30.21 in 10.0 mi West 6.9 mph - N/A   Overcast
6:13 AM 30.2 °F - 26.6 °F 86% 30.20 in 10.0 mi Calm Calm - N/A   Overcast
6:33 AM 30.2 °F 22.6 °F 26.6 °F 86% 30.21 in 10.0 mi WSW 8.1 mph - N/A   Overcast
6:53 AM 30.2 °F 24.3 °F 24.8 °F 80% 30.20 in 10.0 mi WSW 5.8 mph - N/A   Overcast
7:13 AM 30.2 °F 26.7 °F 24.8 °F 80% 30.20 in 10.0 mi WSW 3.5 mph - N/A   Overcast
7:33 AM 30.2 °F 23.4 °F 24.8 °F 80% 30.20 in 10.0 mi West 6.9 mph - N/A   Overcast
7:53 AM 30.2 °F 22.6 °F 24.8 °F 80% 30.20 in 10.0 mi WSW 8.1 mph - N/A   Overcast
8:13 AM 28.4 °F 19.1 °F 24.8 °F 86% 30.19 in 10.0 mi WSW 10.4 mph - N/A   Overcast
8:33 AM 28.4 °F 21.2 °F 24.8 °F 86% 30.20 in 10.0 mi WSW 6.9 mph - N/A   Mostly Cloudy
8:53 AM 28.4 °F 19.7 °F 24.8 °F 86% 30.19 in 10.0 mi SW 9.2 mph - N/A   Scattered Clouds
9:13 AM 30.2 °F 21.9 °F 24.8 °F 80% 30.18 in 10.0 mi SW 9.2 mph - N/A   Scattered Clouds
9:33 AM 30.2 °F 19.8 °F 24.8 °F 80% 30.18 in 10.0 mi SW 13.8 mph - N/A   Clear
9:53 AM 30.2 °F 20.8 °F 24.8 °F 80% 30.17 in 10.0 mi SW 11.5 mph - N/A   Clear
10:13 AM 32.0 °F 22.5 °F 24.8 °F 75% 30.17 in 10.0 mi SW 12.7 mph 23.0 mph N/A   Clear
10:33 AM 32.0 °F 22.1 °F 26.6 °F 80% 30.16 in 10.0 mi SSW 13.8 mph - N/A   Clear
10:53 AM 33.8 °F 25.3 °F 26.6 °F 75% 30.15 in 10.0 mi SW 11.5 mph 20.7 mph N/A   Clear
11:13 AM 35.6 °F 25.9 °F 26.6 °F 70% 30.14 in 10.0 mi SSW 16.1 mph 20.7 mph N/A   Clear
11:33 AM 35.6 °F 26.2 °F 26.6 °F 70% 30.12 in 10.0 mi SSW 15.0 mph 19.6 mph N/A   Clear
11:53 AM 35.6 °F 26.2 °F 26.6 °F 70% 30.11 in 10.0 mi SW 15.0 mph 18.4 mph N/A   Clear
12:13 PM 35.6 °F 25.2 °F 24.8 °F 65% 30.11 in 10.0 mi SW 18.4 mph - N/A   Clear
12:33 PM 35.6 °F 24.8 °F 26.6 °F 70% 30.10 in 10.0 mi SW 19.6 mph 25.3 mph N/A   Clear
12:53 PM 35.6 °F 26.2 °F 26.6 °F 70% 30.10 in 10.0 mi SW 15.0 mph 18.4 mph N/A   Clear
1:13 PM 35.6 °F 27.1 °F 26.6 °F 70% 30.09 in 10.0 mi SW 12.7 mph 17.3 mph N/A   Clear
1:33 PM 35.6 °F 29.2 °F 26.6 °F 70% 30.08 in 10.0 mi SW 8.1 mph - N/A   Clear
1:53 PM 37.4 °F 28.5 °F 26.6 °F 65% 30.07 in 10.0 mi SW 15.0 mph 18.4 mph N/A   Clear
2:13 PM 37.4 °F 29.8 °F 26.6 °F 65% 30.07 in 10.0 mi WSW 11.5 mph 21.9 mph N/A   Clear
2:33 PM 37.4 °F 30.8 °F 26.6 °F 65% 30.07 in 10.0 mi WSW 9.2 mph 23.0 mph N/A   Clear
2:53 PM 35.6 °F 27.1 °F 26.6 °F 70% 30.06 in 10.0 mi SW 12.7 mph 20.7 mph N/A   Clear
3:13 PM 35.6 °F 28.0 °F 26.6 °F 70% 30.06 in 10.0 mi WSW 10.4 mph - N/A   Clear
3:33 PM 37.4 °F 30.8 °F 26.6 °F 65% 30.06 in 10.0 mi WSW 9.2 mph - N/A   Clear
3:53 PM 35.6 °F 29.2 °F 26.6 °F 70% 30.06 in 7.0 mi West 8.1 mph 16.1 mph N/A Snow Light Snow
4:13 PM 35.6 °F 29.9 °F 28.4 °F 75% 30.07 in 3.0 mi West 6.9 mph - N/A Snow Light Snow
4:33 PM 33.8 °F 29.6 °F 30.2 °F 87% 30.06 in 1.8 mi West 4.6 mph - N/A Snow Light Snow
4:53 PM 33.8 °F 27.0 °F 30.2 °F 87% 30.06 in 1.8 mi West 8.1 mph - N/A Snow Light Snow
5:13 PM 33.8 °F 28.6 °F 30.2 °F 87% 30.07 in 3.0 mi West 5.8 mph - N/A Snow Light Snow
5:33 PM 32.0 °F 24.8 °F 30.2 °F 93% 30.07 in 1.8 mi WNW 8.1 mph - N/A Snow Light Snow
5:53 PM 30.2 °F 24.3 °F 28.4 °F 93% 30.07 in 1.8 mi West 5.8 mph - N/A Snow Light Snow
6:13 PM 30.2 °F 22.6 °F 28.4 °F 93% 30.08 in 1.2 mi WNW 8.1 mph - 0.01 in Snow Light Snow
6:33 PM 28.4 °F 22.2 °F 26.6 °F 93% 30.09 in 1.5 mi NNW 5.8 mph - 0.01 in Snow Light Snow
6:53 PM 28.4 °F 20.4 °F 24.8 °F 86% 30.10 in 1.5 mi NW 8.1 mph - N/A Snow Light Snow
7:13 PM 24.8 °F 13.4 °F 21.2 °F 86% 30.12 in 2.0 mi NW 12.7 mph 18.4 mph N/A Snow Light Snow
7:33 PM 24.8 °F 13.4 °F 21.2 °F 86% 30.13 in 2.5 mi NNW 12.7 mph 21.9 mph N/A Snow Light Snow
7:53 PM 21.2 °F 12.6 °F 17.6 °F 86% 30.13 in 3.0 mi NNW 6.9 mph - N/A Snow Light Snow
8:13 PM 23.0 °F 14.7 °F 14.0 °F 68% 30.13 in 10.0 mi NNW 6.9 mph - N/A   Scattered Clouds
8:33 PM 21.2 °F 10.9 °F 10.4 °F 63% 30.13 in 10.0 mi NNW 9.2 mph 17.3 mph N/A   Mostly Cloudy
8:53 PM 21.2 °F 11.7 °F 12.2 °F 68% 30.14 in 10.0 mi NNW 8.1 mph - N/A   Scattered Clouds
9:13 PM 21.2 °F 12.6 °F 12.2 °F 68% 30.15 in 10.0 mi NNW 6.9 mph 16.1 mph N/A   Clear
9:33 PM 19.4 °F 11.5 °F 10.4 °F 68% 30.16 in 10.0 mi NNW 5.8 mph 18.4 mph N/A   Clear
9:53 PM 19.4 °F 10.4 °F 10.4 °F 68% 30.18 in 10.0 mi NW 6.9 mph - N/A   Clear
10:13 PM 17.6 °F 6.4 °F 10.4 °F 73% 30.18 in 10.0 mi NW 9.2 mph - N/A   Clear
10:33 PM 17.6 °F 9.3 °F 10.4 °F 73% 30.19 in 10.0 mi NW 5.8 mph - N/A   Clear
10:53 PM 15.8 °F 7.2 °F 10.4 °F 79% 30.19 in 10.0 mi NW 5.8 mph - N/A   Clear
11:13 PM 15.8 °F 7.2 °F 8.6 °F 73% 30.20 in 10.0 mi NW 5.8 mph - N/A   Clear
11:33 PM 15.8 °F 7.2 °F 8.6 °F 73% 30.21 in 10.0 mi NW 5.8 mph - N/A   Scattered Clouds
11:53 PM 15.8 °F 6.1 °F 10.4 °F 79% 30.21 in 10.0 mi NW 6.9 mph - N/A Snow Light Snow